Regional Weather Roundup
Issued by NWS Charleston, SC

Current Version | Previous Version | Graphics & Text | Print | Product List | Glossary On
Versions: 1 2 3 4 5 6 7 8 9 10 11 12 13 14 15 16 17 18 19 20 21 22 23 24 25 26 27 28 29 30 31 32 33 34 35 36 37 38 39 40 41 42 43 44 45 46 47 48 49 50
000 ASUS42 KCHS 270610 RWRCHS REGIONAL WEATHER ROUNDUP NATIONAL WEATHER SERVICE CHARLESTON SC 200 AM EDT WED AUG 27 2014 NOTE: "FAIR" INDICATES FEW OR NO CLOUDS BELOW 12,000 FEET WITH NO SIGNIFICANT WEATHER AND/OR OBSTRUCTIONS TO VISIBILITY. NOT ALL STATIONS ARE QUALITY CONTROLLED BY THE NATIONAL WEATHER SERVICE. USE DATA WITH CAUTION...ESPECIALLY DEWPOINT OBSERVATIONS. SCZ027-030-031-034>040-042>050-270700- ...SOUTH CAROLINA... CITY SKY/WX TMP DP RH WIND PRES REMARKS N CHARLESTON FAIR 72 65 78 N6 30.02F 6HR MIN TEMP: 72; 6HR MAX TEMP: 81; WATERFRONT PRK N/A 77 N/A N/A N13 N/A FORT JOHNSON NOT AVBL MOUNT PLEASANT FAIR 72 66 83 CALM 30.01F JOHNS ISLAND CLEAR 73 68 83 CALM 30.02S PINOPOLIS N/A 75 66 73 NE15 29.94F MONCKS CORNER NOT AVBL SUMMERVILLE FAIR 64 64 100 CALM 30.04F BEAUFORT MCAS FAIR 73 65 75 E5 30.02S 6HR MIN TEMP: 72; 6HR MAX TEMP: 82; BEAUFORT ARPT FAIR 75 68 78 NE8 30.01F HILTON HEAD IS FAIR 75 66 73 N7 30.02F GEORGETOWN NOT AVBL WALTERBORO FAIR 68 68 100 N3 30.04S ORANGEBURG FAIR 70 59 68 NE6 30.06S 6HR MIN TEMP: 67; 6HR MAX TEMP: 81; BARNWELL FAIR 70 63 78 NE7 30.05F AIKEN FAIR 68 63 83 NE5 30.10S MANNING MOCLDY 64 N/A N/A N3 30.05S KINGSTREE NOT AVBL COLUMBIA FAIR 73 59 61 N5 30.05F 6HR MIN TEMP: 73; 6HR MAX TEMP: 84; SUMTER FAIR 66 61 85 NE6 30.04F 6HR MIN TEMP: 66; 6HR MAX TEMP: 76; 6HR PCP: TRACE; FLORENCE FAIR 68 62 81 N7 30.05F 6HR MIN TEMP: 68; 6HR MAX TEMP: 79; MYRTLE BEACH FAIR 72 63 73 N9 30.02F N MYRTLE BEACH NOT AVBL $$ GAZ063-065-086>088-099>101-113>116-118-119-134-136>141-150-270700- ...GEORGIA... CITY SKY/WX TMP DP RH WIND PRES REMARKS SAVANNAH ARPT FAIR 73 65 75 NE7 30.02F 6HR MIN TEMP: 71; 6HR MAX TEMP: 82; HUNTER AAF FAIR 74 69 84 NE3 29.99F 6HR MIN TEMP: 73; 6HR MAX TEMP: 80; 6HR PCP: TRACE; FORT STEWART FAIR 69 67 92 CALM 30.00F 6HR MIN TEMP: 69; 6HR MAX TEMP: 82; STATESBORO NOT AVBL SYLVANIA FAIR 66 66 100 CALM 30.04F CLAXTON NOT AVBL THOMSON FAIR 64 64 100 CALM 30.11S AUGUSTA-BUSH FAIR 70 61 73 CALM 30.05S 6HR MIN TEMP: 66; 6HR MAX TEMP: 81; AUGUSTA-DANIEL FAIR 75 60 59 NE8 30.06F SWAINSBORO FAIR 73 70 88 NE5 30.04S VIDALIA N/A 72 68 88 CALM 30.03S ALMA FAIR 67 65 93 CALM 30.01F 6HR MIN TEMP: 67; 6HR MAX TEMP: 83; WAYCROSS FAIR 73 71 94 CALM 30.00F JESUP N/A 73 72 94 CALM 30.01S BRUNSWICK FAIR 73 68 83 N3 30.00S SAINT SIMONS FAIR 78 66 66 NE9 29.98F 6HR MIN TEMP: 78; 6HR MAX TEMP: 80; $$ SCZ027-028-034-036>038-045-046-048>050-GAZ119-141-270700- ...LAKE AND SUPPLEMENTAL COASTAL OBSERVATIONS... STATION/POSITION TIME TEMP WIND PRES WAVE SWELL AIR SEA DIR/SP/G HT/PER HT/PER/DIR (UTC) (F) (DEG/KT/KT) (MB) (FT/S) (FT/S/D) UPR LAKE MARION NOT AVBL WINYAH BAY 0500 73 10/ 6 1016.0F LAKE MURRAY 0500 72 360/ 3/ 4 1017.6F ACE BASIN NERRS 0500 72 10/ 1 1016.0F FORT PULASKI 0600 79 20/ 9/ 12 1016.3F SAPELO ISLAND 0500 76 60/ 5 1016.0S $$ ANZ835-935-AMZ111-154-330-350-352-354-374-450-454-472-270700- ...C-MAN AND BUOY OBSERVATIONS... STATION/POSITION TIME TEMP WIND PRES WAVE SWELL AIR SEA DIR/SP/G HT/PER HT/PER/DIR (UTC) (F) (DEG/KT/KT) (MB) (FT/S) (FT/S/D) FOLLY BEACH CMAN 0500 77 20/ 13/ 15 1016.9S BUOY 41004 0600 80 83 20/ 19/ 23 1014.4F 7/ 9 5/ 9 BUOY 41008 0600 81 84 50/ 14/ 17 1015.2F 5/ 9 3/ 90/ 9 5E ST. MARYS GA 0600 83 N/A 7/11 3/110/11 FRYING PAN BUOY NOT AVBL BUOY 41025 0600 76 360/ 21/ 23 1013.9F 8/11 7/120/11 CAPE LOOKOUT NC 0500 74 10/ 16/ 20 1015.6F BUOY 41002 0458 80 81 20/ 25/ 29 1008.0 10/ 8 3/120/14 BUOY 41010 0600 82 85 20/ 16/ 19 1011.7F 10/ 9 8/ 50/ 9 BUOY 41012 NOT AVBL ST AUGUSTINE FL 0600 78 20/ 7/ 8 1015.2F CAPERS NEARSHORE 0500 78 40/ 14/ 17 N/A FRIPP NEARSHORE NOT AVBL $$

USA.gov is the U.S. government's official web portal to all federal, state and local government web resources and services.